Powrót do katalogu

SL-8 R/B

AktywnyPO
NORAD 16369·ROCKET BODY·🇷🇺 Russia

Wystrzelony Dec 19, 1985 z Plesetsk Cosmodrome

Loading…

Następne Przeloty (najbliższe 24 godziny)

TLE

ŚwieżeSource: Space-Track

Epoka: Sep 14, 2026, 17:22 UTC

1 16369U 85116B   26257.72379142  .00000049  00000-0  33378-4 0  9994
2 16369  82.9414 356.6702 0037442  69.7456  92.9768 13.77204348 46359

Śledź SL-8 R/B w czasie rzeczywistym z AllMySat

Download on the App Store